Powrót do katalogu

BLOCK DM-SL R/B

AktywnyHEO
NORAD 33377·ROCKET BODY· XX

Wystrzelony Sep 24, 2008 z Sea Launch Platform

Loading…

Następne Przeloty (najbliższe 24 godziny)

TLE

ŚwieżeSource: Space-Track

Epoka: Sep 14, 2026, 07:50 UTC

1 33377U 08045B   26257.32687497 -.00000157  00000-0  00000-0 0  9992
2 33377   0.9349  64.3396 6418468  77.0624 289.1079  2.12855347139808

Śledź BLOCK DM-SL R/B w czasie rzeczywistym z AllMySat

Download on the App Store